www.pogodaiklimat.ru

Погода и климат >> Архив погоды >> Австрия >> Вайтра


ПОГОДА в Вайтре

  • Прогноз погоды в Вайтре
  • Монитор погоды в Вайтре

АРХИВ ПОГОДЫ в Вайтре

Время (UTC), дата Ветер
(напр.,м/с)
 
Видим.   Явления Облачность Т
(С)
Тd
(С)
f
(%)
Тe
(С)
Тes
(С)
Комфортность P
(гПа)
Po
(гПа)
Тmin
(С)
Tmax
(С)
R
(мм)
R24
(мм)
S
(см)
22 13.06 СЗ 1 н/о н/о +21.4 +16.1 72 +25 +25 комфорт 1014.2 950.1
23 13.06 СЗ 1 н/о в посл. час осадки н/о +19.4 +17.5 89 +23 +23 комфорт 1015.5 951.0 1
00 14.06 З 1 н/о {осадки} н/о +18.8 +17.1 90 +21 +21 комфорт 1015.8 951.1 1
01 14.06 СЗ 1 н/о н/о +19.1 +16.8 87 +22 +22 комфорт 1016.1 951.5
02 14.06 З 1 н/о н/о +17.9 +16.0 89 +19 +19 1016.8 951.8
03 14.06 ЮЗ 1 н/о н/о +16.5 +15.5 94 +17 +17 1017.6 952.3
04 14.06 штиль 0 н/о н/о +16.3 +15.1 93 +16 +16 1018.4 953.0
05 14.06 штиль 0 12 км 9/1 1080 м
[Cu hum Ac cast Ci fib]
+18.4 +15.9 85 +19 +20 1018.4 953.4
06 14.06 штиль 0 30 км 8/0
[Ci fib]
+20.9 +17.0 78 +24 +29 комфорт 1018.1 953.7 +16.1 +25.4
07 14.06 В 1 н/о н/о +22.2 +15.9 67 +26 +26 душно 1018.3 954.1
08 14.06 СВ 1 н/о н/о +23.7 +16.2 63 +27 +27 жарко 1018.0 954.2
09 14.06 В 1 н/о н/о +24.3 +16.9 63 +28 +28 душно 1017.7 954.0
10 14.06 В 2 н/о н/о +25.6 +16.7 58 +29 +29 душно 1017.2 953.8
11 14.06 В 2 н/о н/о +26.0 +15.9 54 +29 +29 душно 1016.8 953.5
12 14.06 ЮВ 3 30 км 9/1 1080 м
[Cu hum Ac cast Ci fib]
+27.1 +17.7 56 +31 +39 душно 1016.1 953.1
13 14.06 В 2 н/о н/о +27.8 +17.1 52 +32 +32 душно 1015.4 952.6
14 14.06 В 3 н/о н/о +28.7 +16.9 49 +32 +32 душно 1014.6 952.0
15 14.06 В 3 н/о н/о +29.0 +15.7 44 +32 +32 душно 1013.8 951.3
16 14.06 В 3 н/о н/о +28.8 +15.8 45 +32 +32 душно 1013.5 951.0
17 14.06 ЮВ 4 н/о н/о +27.8 +15.8 48 +31 +31 душно 1013.6 950.9
18 14.06 В 3 30 км 8/0
[Ci fib]
+26.4 +16.3 54 +30 +30 душно 1013.7 950.7 +20.3 +29.1
19 14.06 В 2 н/о н/о +24.6 +16.4 60 +28 +28 душно 1013.5 950.2
20 14.06 ЮВ 3 н/о н/о +23.6 +16.3 64 +27 +27 жарко 1013.7 950.1
21 14.06 ЮВ 3 н/о н/о +22.9 +16.4 67 +28 +28 душно 1013.4 949.7
22 14.06 ЮВ 3 н/о н/о +22.6 +16.8 70 +27 +27 душно 1013.2 949.5
23 14.06 ЮВ 1 н/о н/о +21.5 +16.8 75 +25 +25 комфорт 1012.8 948.9
00 15.06 ЮВ 1 н/о н/о +20.4 +16.7 79 +25 +25 комфорт 1012.5 948.4
01 15.06 В 1 н/о н/о +19.8 +16.6 82 +23 +23 комфорт 1012.3 948.0
02 15.06 ЮВ 1 н/о н/о +19.7 +16.4 81 +23 +23 комфорт 1011.3 947.1
03 15.06 ЮВ 1 н/о н/о +19.4 +16.0 81 +22 +22 комфорт 1011.4 947.1
04 15.06 ЮЗ 1 н/о н/о +19.0 +15.7 81 +21 +21 комфорт 1011.4 947.0
05 15.06 ЮВ 2 30 км 9/1 1080 м
[Cu hum Ac As Ci fib]
+21.4 +14.5 65 +24 +25 комфорт 1010.7 946.8
06 15.06 ЮВ 1 н/о н/о +21.5 +15.6 69 +25 +25 комфорт 1010.8 947.0 +18.6 +26.7
07 15.06 ЮВ 3 н/о н/о +25.1 +15.3 55 +28 +28 жарко 1010.5 947.4
08 15.06 ЮВ 2 н/о н/о +26.4 +17.5 58 +31 +31 душно 1010.0 947.3
09 15.06 Ю 3 н/о н/о +27.4 +11.6 37 +28 +28 жарко 1009.5 946.9
10 15.06 штиль 0 н/о н/о +27.4 +17.5 55 +32 +32 очень
душно
1009.9 947.4
11 15.06 СВ 1 н/о н/о +28.4 +16.0 47 +32 +32 душно 1009.9 947.5
12 15.06 В 1 н/о н/о +29.4 +15.3 42 +32 +32 душно 1009.9 947.7
13 15.06 штиль 0 н/о н/о +29.5 +16.3 45 +33 +33 душно 1009.7 947.6
14 15.06 З 2 н/о н/о +31.0 +12.9 33 +32 +32 жарко 1009.2 947.3
15 15.06 СВ 1 н/о н/о +30.0 +12.5 34 +31 +31 жарко 1008.8 946.7
16 15.06 штиль 0 н/о н/о +28.9 +13.0 38 +30 +30 жарко 1008.7 946.4
17 15.06 СЗ 4 н/о н/о +19.9 +15.8 77 +22 +22 комфорт 1011.7 947.5 6
18 15.06 Ю 1 н/о в посл. час осадки {ливн. осадки} н/о +19.1 +16.7 86 +22 +22 комфорт 1012.2 947.8 +18.8 +31.7 7
19 15.06 ЮЗ 3 н/о н/о +19.5 +15.8 79 +22 +22 комфорт 1012.3 948.0
20 15.06 З 3 н/о н/о +20.0 +15.8 77 +23 +23 комфорт 1013.2 948.9
21 15.06 Ю 2 н/о н/о +19.8 +15.7 77 +23 +23 комфорт 1013.6 949.2 0.0
22 15.06 З 1 н/о в посл. час осадки н/о +18.0 +16.1 89 +19 +19 1013.7 949.0 0.1
23 15.06 З 1 н/о н/о +17.9 +15.2 84 +19 +19 1014.4 949.6 0.0
00 16.06 З 1 н/о {осадки} н/о +17.7 +14.9 84 +19 +19 1014.5 949.6 0.1
01 16.06 Ю 1 н/о н/о +17.1 +15.1 88 +18 +18 1014.3 949.3
02 16.06 Ю 1 н/о н/о +16.4 +14.8 90 +17 +17 1014.4 949.2
03 16.06 Ю 2 н/о н/о +16.7 +14.8 89 +17 +17 1015.3 950.1 0.0
04 16.06 З 1 н/о осадки н/о +16.9 +15.0 89 +18 +18 1016.1 950.9 0.5
05 16.06 штиль 0 н/о н/о +18.8 +15.7 82 +20 +20 1015.7 951.0 0.0
06 16.06 СЗ 2 12 км {ливн. осадки} 9/8 900 м
[Frnb Ac As Ci fib]
+18.4 +15.8 85 +20 +20 1016.2 951.4 +16.1 +20.2 0.6
07 16.06 З 2 н/о н/о +18.8 +15.7 82 +20 +20 1016.9 952.1
08 16.06 З 1 н/о н/о +19.0 +15.7 81 +21 +21 комфорт 1017.1 952.3 0.0
09 16.06 ЮЗ 3 н/о н/о +18.0 +15.4 85 +18 +18 1018.0 953.0 0.0
10 16.06 СЗ 2 н/о осадки н/о +16.9 +15.7 93 +17 +17 1018.9 953.6 0.4
11 16.06 СЗ 1 н/о в посл. час осадки н/о +16.8 +14.0 84 +18 +18 1019.9 954.4 0.1
12 16.06 З 2 10 км осадки на расстоянии {ливн. осадки} 10/1 870 м
[Cu med, cong Ac As]
+17.4 +14.2 81 +18 +22 1020.0 954.7 0.5
13 16.06 СЗ 3 н/о н/о +17.6 +13.9 79 +18 +18 1019.8 954.5
14 16.06 СЗ 1 н/о н/о +18.8 +14.4 76 +21 +21 комфорт 1019.3 954.3
15 16.06 СЗ 2 н/о н/о +19.7 +14.3 71 +22 +22 комфорт 1019.1 954.3
16 16.06 СЗ 2 н/о н/о +19.6 +13.6 68 +22 +22 комфорт 1018.9 954.1
17 16.06 СЗ 2 н/о н/о +19.2 +13.2 68 +21 +21 комфорт 1019.3 954.4
18 16.06 СЗ 1 30 км 9/6 900 м
[Frnb Ac As Ci fib]
+18.8 +13.6 72 +21 +21 комфорт 1020.3 955.2 +16.0 +20.8 0.5
19 16.06 З 1 н/о н/о +18.0 +13.7 76 +19 +19 1020.0 954.8
20 16.06 ЮЗ 2 н/о н/о +17.2 +13.4 78 +18 +18 1020.2 954.8
21 16.06 ЮЗ 1 н/о н/о +16.6 +13.3 81 +17 +17 1021.1 955.5
22 16.06 Ю 1 н/о н/о +16.1 +13.4 84 +17 +17 1021.7 956.0
23 16.06 ЮЗ 1 н/о н/о +15.6 +13.2 86 +16 +16 1021.3 955.5
00 17.06 ЮЗ 1 н/о н/о +15.6 +13.3 86 +16 +16 1021.1 955.3
01 17.06 Ю 1 н/о н/о +14.5 +13.1 91 +15 +15 1021.7 955.6
02 17.06 Ю 1 н/о н/о +13.8 +12.8 94 +14 +14 1021.8 955.5
03 17.06 Ю 1 н/о н/о +13.7 +12.7 94 +14 +14 1021.9 955.6
04 17.06 штиль 0 н/о н/о +13.5 +12.8 96 +13 +13 1021.9 955.6
05 17.06 В 1 н/о н/о +16.5 +13.6 83 +17 +17 1021.5 955.9
06 17.06 В 1 30 км 8/1 1080 м
[Cu hum Ac lent Ci fib]
+18.3 +13.7 75 +20 +23 1021.0 955.8 +12.9 +18.9
07 17.06 СВ 1 н/о н/о +20.0 +12.9 64 +23 +23 комфорт 1020.6 955.8
08 17.06 С 1 н/о н/о +21.3 +14.1 63 +24 +24 комфорт 1020.0 955.5
09 17.06 В 2 н/о н/о +21.2 +11.9 55 +23 +23 комфорт 1020.1 955.5
10 17.06 СВ 2 н/о н/о +21.8 +12.5 55 +24 +24 комфорт 1019.6 955.2
11 17.06 В 2 н/о н/о +22.6 +12.1 51 +25 +25 комфорт 1019.3 955.1
12 17.06 СВ 2 30 км 9/5 900 м
[Sc Ac As Ci fib]
+22.3 +13.3 57 +25 +30 комфорт 1019.0 954.8
13 17.06 СВ 2 н/о н/о +22.2 +12.6 54 +25 +25 комфорт 1018.9 954.6
14 17.06 В 2 н/о н/о +23.4 +12.7 51 +26 +26 жарко 1018.1 954.1
15 17.06 СВ 2 н/о н/о +23.0 +13.1 54 +26 +26 жарко 1017.5 953.5
16 17.06 СВ 2 н/о н/о +22.6 +13.5 56 +26 +26 жарко 1017.5 953.4
17 17.06 В 2 н/о н/о +22.1 +13.4 58 +25 +25 комфорт 1017.3 953.1
18 17.06 В 1 30 км 9/1 1080 м
[Cu hum Ac lent Ci fib]
+21.5 +13.4 60 +24 +24 комфорт 1017.4 953.1 +17.9 +23.8
19 17.06 ЮВ 1 н/о н/о +20.3 +13.0 63 +24 +24 комфорт 1017.7 953.1
20 17.06 ЮВ 1 н/о н/о +19.0 +13.6 71 +21 +21 комфорт 1018.4 953.5
21 17.06 ЮВ 2 н/о н/о +18.1 +13.5 74 +19 +19 1018.7 953.6
22 17.06 ЮВ 2 н/о н/о +17.6 +13.0 74 +18 +18 1018.9 953.7
23 17.06 Ю 1 н/о н/о +16.5 +12.5 77 +17 +17 1019.1 953.6
00 18.06 Ю 1 н/о н/о +15.5 +12.3 81 +16 +16 1019.0 953.3
01 18.06 Ю 1 н/о н/о +15.0 +12.2 83 +16 +16 1018.8 953.0
02 18.06 Ю 1 н/о н/о +14.5 +12.1 86 +15 +15 1018.4 952.5
03 18.06 Ю 1 н/о н/о +14.0 +11.9 87 +14 +14 1018.4 952.4
04 18.06 Ю 1 н/о н/о +14.0 +12.0 88 +14 +14 1018.4 952.4
05 18.06 З 1 н/о н/о +14.8 +12.4 86 +15 +15 1018.4 952.6
06 18.06 ЮВ 1 30 км 8/1 1080 м
[Cu hum Ac As Ci fib]
+16.4 +11.8 74 +17 +20 1018.1 952.6 +13.9 +21.6
07 18.06 ЮВ 2 н/о н/о +17.5 +12.2 71 +18 +18 1017.9 952.7
08 18.06 ЮВ 3 н/о н/о +19.9 +12.0 60 +22 +22 комфорт 1017.2 952.5
09 18.06 В 2 н/о н/о +22.0 +11.7 52 +24 +24 комфорт 1016.5 952.3
10 18.06 В 3 н/о н/о +23.1 +11.8 49 +26 +26 жарко 1015.8 951.9
11 18.06 ЮВ 3 н/о н/о +24.6 +11.7 44 +26 +26 жарко 1014.9 951.4
12 18.06 В 2 30 км 8/4 900 м
[Cu med, cong Ac As Ci fib]
+25.0 +12.7 46 +27 +34 жарко 1014.3 950.9
13 18.06 В 3 н/о н/о +25.6 +11.9 42 +27 +27 жарко 1013.7 950.4
14 18.06 В 2 н/о н/о +26.0 +12.0 42 +27 +27 жарко 1013.0 949.9
15 18.06 В 3 н/о н/о +26.1 +12.9 44 +28 +28 жарко 1012.7 949.6 0.0
16 18.06 В 3 н/о н/о +26.2 +11.9 41 +28 +28 жарко 1012.1 949.1
17 18.06 ЮВ 4 н/о н/о +24.5 +12.3 47 +26 +26 жарко 1012.7 949.3
18 18.06 ЮВ 2 н/о н/о +23.3 +12.9 52 +26 +26 жарко 1013.0 949.3 +16.3 +26.5 0.0
19 18.06 ЮВ 1 н/о н/о +22.0 +13.5 59 +25 +25 комфорт 1013.2 949.3
20 18.06 ЮВ 1 н/о н/о +20.2 +13.4 65 +23 +23 комфорт 1014.2 949.8
21 18.06 З 1 н/о н/о +17.9 +13.7 76 +19 +19 1014.6 949.7
22 18.06 ЮЗ 1 н/о н/о +16.7 +13.4 81 +18 +18 1014.7 949.5
23 18.06 штиль 0 н/о н/о +15.2 +12.6 84 +15 +15 1014.5 949.0
00 19.06 Ю 1 н/о н/о +15.1 +12.6 85 +16 +16 1014.5 949.0
01 19.06 Ю 1 н/о н/о +14.5 +12.5 88 +15 +15 1014.4 948.8
02 19.06 Ю 2 н/о н/о +13.7 +12.0 89 +13 +13 1014.3 948.5
03 19.06 Ю 2 н/о н/о +13.1 +11.9 92 +12 +12 1014.1 948.2
04 19.06 ЮЗ 1 н/о н/о +13.4 +12.1 92 +14 +14 1014.1 948.2
05 19.06 ЮЗ 1 30 км 8/1 1080 м
[Cu hum Ac As Ci fib]
+16.5 +13.0 80 +17 +19 1013.2 948.1
06 19.06 В 1 30 км 9/1 1080 м
[Cu hum Ac As Ci fib]
+20.6 +15.1 71 +25 +27 комфорт 1012.2 948.1 +13.0 +23.6
07 19.06 СВ 1 н/о н/о +22.6 +15.5 64 +27 +27 душно 1011.8 948.1
08 19.06 СВ 1 н/о н/о +24.2 +15.5 58 +27 +27 жарко 1011.3 948.0
09 19.06 СВ 1 н/о н/о +25.8 +16.1 55 +29 +29 душно 1010.5 947.6
10 19.06 В 1 н/о н/о +26.3 +13.5 45 +28 +28 жарко 1010.3 947.4
11 19.06 В 3 н/о н/о +26.4 +14.9 49 +29 +29 жарко 1009.7 946.9
12 19.06 В 2 30 км 9/1 870 м
[Cb calv Ac As Ci fib]
+26.7 +13.6 44 +29 +37 жарко 1009.4 946.7
13 19.06 ЮВ 1 н/о н/о +26.4 +13.2 44 +28 +28 жарко 1009.3 946.5
14 19.06 З 1 н/о н/о +26.6 +14.6 48 +29 +29 жарко 1008.6 945.9 0.0
15 19.06 З 4 н/о н/о +21.9 +13.6 59 +25 +25 комфорт 1009.4 945.7 0.0
16 19.06 ЮВ 3 н/о осадки н/о +19.8 +15.6 77 +22 +22 комфорт 1011.9 947.6 0.5
17 19.06 В 2 н/о осадки н/о +19.2 +16.6 85 +21 +21 комфорт 1010.6 946.3 1
18 19.06 З 2 30 км в посл. час ливневой дождь {гроза} 8/1 1080 м
[Cu hum Ac As Ci fib]
+19.5 +15.9 80 +22 +22 комфорт 1011.1 946.8 +18.7 +27.7 2
19 19.06 ЮЗ 2 н/о н/о +18.6 +16.8 89 +20 +20 1010.7 946.3
20 19.06 штиль 0 н/о н/о +16.9 +15.1 89 +17 +17 1012.3 947.4
21 19.06 ЮЗ 2 н/о н/о +16.3 +14.9 91 +16 +16 1012.1 947.1
22 19.06 ЮЗ 1 н/о н/о +15.3 +14.1 93 +16 +16 1012.2 946.9
23 19.06 ЮЗ 2 н/о н/о +14.9 +13.3 90 +15 +15 1012.0 946.6
00 20.06 Ю 1 н/о н/о +14.2 +12.7 91 +14 +14 1012.0 946.5
01 20.06 штиль 0 н/о н/о +13.3 +12.1 92 +13 +13 1012.3 946.5
02 20.06 Ю 2 н/о н/о +12.5 +11.6 94 +11 +11 1011.9 946.0
03 20.06 Ю 1 н/о н/о +12.1 +11.3 95 +12 +12 1012.3 946.2
04 20.06 Ю 1 н/о н/о +12.3 +11.5 95 +12 +12 1012.4 946.4
05 20.06 штиль 0 н/о н/о +16.1 +13.3 83 +16 +16 1011.8 946.7
06 20.06 В 1 30 км 8/1 1080 м
[Cu hum Ac cast Ci fib]
+20.8 +15.3 71 +25 +28 комфорт 1011.1 947.1 +12.0 +20.8
07 20.06 СЗ 1 н/о н/о +22.4 +14.0 59 +26 +26 жарко 1011.6 947.9
08 20.06 СЗ 1 н/о н/о +23.4 +13.9 55 +27 +27 душно 1011.4 947.9
09 20.06 штиль 0 н/о н/о +24.4 +13.7 51 +27 +27 жарко 1011.2 947.9
10 20.06 СЗ 1 н/о н/о +26.6 +15.3 50 +29 +29 жарко 1010.8 948.0
11 20.06 В 1 н/о н/о +25.9 +13.1 45 +28 +28 жарко 1010.7 947.7
12 20.06 З 4 н/о осадки н/о +21.6 +16.3 72 +25 +25 комфорт 1011.8 947.9 0.1
13 20.06 Ю 2 н/о осадки н/о +18.6 +15.5 82 +20 +20 1012.8 948.2 0.9
14 20.06 ЮЗ 4 н/о в посл. час осадки н/о +17.3 +14.6 84 +17 +17 1012.3 947.5 0.9
15 20.06 ЮЗ 1 н/о ливневой дождь {осадки} н/о +22.4 +16.1 68 +27 +27 душно 1010.6 947.0 2
16 20.06 штиль 0 н/о н/о +24.2 +15.3 58 +27 +27 жарко 1010.3 947.0
17 20.06 штиль 0 н/о н/о +24.8 +13.4 49 +27 +27 жарко 1010.8 947.6
18 20.06 Ю 1 н/о {ливн. осадки} н/о +21.7 +16.0 70 +25 +25 комфорт 1011.2 947.4 +16.9 +27.1 2
19 20.06 ЮЗ 7 н/о н/о +19.2 +13.2 68 +20 +20 1013.0 948.5 0.0
20 20.06 ЮЗ 6
{14}
н/о н/о +16.8 +12.8 77 +16 +16 1015.3 950.1 0.0
21 20.06 З 1
{14}
н/о осадки н/о +15.1 +14.0 93 +16 +16 1015.8 950.2 5

 

Местоположение метеостанции Вайтра (Австрия): широта 48.70 долгота 14.88 высота над уровнем моря 571 м.

В архиве по умолчанию представлена погода в Вайтре за последнюю неделю. Архивные данные за месяц целиком и за предыдущие месяцы, начиная с января 2011 года, Вы можете получить, выбрав интересующий диапазон дат из раскрывающегося списка и нажав кнопку "Ввод!".


*Определитесь, кто Вы:
робот инопланетянин человек

Внимание! Время в таблицах - всемирное. Для получения местного времени необходимо прибавить поправку, которая равна 1 ч.

Смотрите также архив погоды в соседних городах и на ближайших метеорологических станциях:

Погода в Цветле (Австрия) (25 км)
Погода в Личау (Австрия) (30 км)
Погода в Бернкопфе (Австрия) (36 км)
Погода в Аллентштайге (Австрия) (36 км)
Погода в Ческе-Будеёвице (Чехия) (41 км)
Погода в Яуерлинге (Австрия) (53 км)
Погода в Гарс-ам-Кампе (Австрия) (60 км)
Погода в Линце город (Австрия) (63 км)
Погода в Кремс-ан-дер-Донау (Австрия) (63 км)
Погода в Лангенлойсе (Австрия) (66 км)

Пояснения к столбцам:

Ветер - указаны скорость ветра в м/с - средняя за 10 мин, порывы в срок и между сроками (в фигурных скобках) и направление, откуда дует ветер: С - северный, СВ - северо-восточный, В - восточный, ЮВ - юго-восточный, Ю - южный, ЮЗ - юго-западный, З - западный, СЗ - северо-западный.
Видимость - горизонтальная дальность видимости в метрах или километрах. При видимости от 1 до 10 км при отсутствии осадков обычно наблюдается дымка, при ухудшении видимости до 1 км и менее - туман. В сухую погоду видимость может ухудшаться дымом, пылью или мглою.
Явления - указаны атмосферные явления, наблюдавшиеся в срок или в последний час перед сроком; фигурными скобками обозначены явления, наблюдавшиеся между сроками (за 1-3 часа до срока); квадратными скобками обозначены град или гололедные отложения с указанием их диаметра в мм.
Облачность - указаны через наклонную черту общая и нижняя облачность в баллах и высота нижней границы облаков в метрах; квадратными скобками обозначены формы облаков: Ci - перистые, Cs - перисто-слоистые, Cc - перисто-кучевые, Ac - высококучевые, As - высокослоистые, Sc - слоисто-кучевые, Ns - слоисто-дождевые, Cu - кучевые, Cb - кучево-дождевые. Подробнее классификацию облаков см. в Атласе облаков (PDF).
T - Температура воздуха - температура, измеренная на высоте 2 м над землей.
Td - Температура точки росы - температура, при понижении до которой содержащийся в воздухе водяной пар достигнет насыщения.
f - Относительная влажность воздуха - влажноcть воздуха, измеренная на высоте 2 м над землей.
Te - Эффективная температура - температура, которую ощущает одетый по сезону человек в тени. Характеристика душности погоды. При расчете учитывается влияние влажности воздуха и скорости ветра на теплоощущения человека.
Tes - Эффективная температура на солнце - температура, которую ощущает человек, с поправкой на солнечный нагрев. Характеристика знойности погоды. Зависит от высоты солнца над горизонтом, облачности и скорости ветра. Ночью, в пасмурную погоду, а также при ветре 12 м/с и более поправка равна нулю.
P - Атмосферное давление - приведенное к уровню моря атмосферное давление.
Po - Атмосферное давление - измеренное на уровне метеостанции атмосферное давление.
Tmin - Минимальная температура - минимум температуры воздуха на высоте 2 м над землей.
Tmax - Максимальная температура - максимум температуры воздуха на высоте 2 м над землей.
R - Количество осадков - Количество выпавших осадков за период времени, мм. При наведении курсора мыши на число - период времени, за который выпало указанное количество осадков.
R24 - Количество осадков - Количество выпавших осадков за 24 часа, мм.
S - Снежный покров - Высота снежного покрова, см. При наведении курсора мыши на число - состояние снежного покрова и степень покрытия местности в баллах.